Location: Newark
(39.6867°N, 100.6772°W)
Time: 02:16:53
(UTC+00:00)

N. Korean satellite - Pass Details

Date: 23 September 2019
Orbit: 455 x 508 km, 97.2° (Epoch: 20 October)

Event Time Altitude Azimuth Distance (km) Brightness Sun altitude
Rises 11:35:20 0° 36° (NE) 2,478 10.9 -11.5°
Reaches altitude 10° 11:38:36 10° 71° (ENE) 1,599 10.7 -10.9°
Maximum altitude 11:39:50 12° 92° (E) 1,505 10.5 -10.7°
Drops below altitude 10° 11:41:04 10° 113° (ESE) 1,598 10.2 -10.4°
Sets 11:44:20 0° 148° (SSE) 2,473 10.5 -9.8°
